Year,Month,Day,Hour,Minute,Value (Times are PST for temperature in C)
2018,02,15,00,00,3.30
2018,02,15,00,01,3.30
2018,02,15,00,02,3.30
2018,02,15,00,03,3.30
2018,02,15,00,04,3.30
2018,02,15,00,05,3.30
2018,02,15,00,06,3.30
2018,02,15,00,07,3.30
2018,02,15,00,08,3.20
2018,02,15,00,09,3.20
2018,02,15,00,10,3.20
2018,02,15,00,11,3.20
2018,02,15,00,12,3.20
2018,02,15,00,13,3.20
2018,02,15,00,14,3.20
2018,02,15,00,15,3.20
2018,02,15,00,16,3.20
2018,02,15,00,17,3.10
2018,02,15,00,18,3.10
2018,02,15,00,19,3.10
2018,02,15,00,20,3.00
2018,02,15,00,21,3.00
2018,02,15,00,22,3.00
2018,02,15,00,23,2.90
2018,02,15,00,24,2.90
2018,02,15,00,25,2.90
2018,02,15,00,26,2.80
2018,02,15,00,27,2.80
2018,02,15,00,28,2.80
2018,02,15,00,29,2.80
2018,02,15,00,30,2.80
2018,02,15,00,31,2.80
2018,02,15,00,32,2.80
2018,02,15,00,33,2.90
2018,02,15,00,34,2.90
2018,02,15,00,35,2.90
2018,02,15,00,36,2.90
2018,02,15,00,37,2.90
2018,02,15,00,38,2.80
2018,02,15,00,39,2.80
2018,02,15,00,40,2.80
2018,02,15,00,41,2.80
2018,02,15,00,42,2.80
2018,02,15,00,43,2.80
2018,02,15,00,44,2.80
2018,02,15,00,45,2.80
2018,02,15,00,46,2.80
2018,02,15,00,47,2.80
2018,02,15,00,48,2.80
2018,02,15,00,49,2.70
2018,02,15,00,50,2.70
2018,02,15,00,51,2.70
2018,02,15,00,52,2.70
2018,02,15,00,53,2.70
2018,02,15,00,54,2.70
2018,02,15,00,55,2.70
2018,02,15,00,56,2.70
2018,02,15,00,57,2.70
2018,02,15,00,58,2.70
2018,02,15,00,59,2.70
2018,02,15,01,00,2.70
2018,02,15,01,01,2.60
2018,02,15,01,02,2.60
2018,02,15,01,03,2.60
2018,02,15,01,04,2.60
2018,02,15,01,05,2.60
2018,02,15,01,06,2.60
2018,02,15,01,07,2.60
2018,02,15,01,08,2.60
2018,02,15,01,09,2.60
2018,02,15,01,10,2.60
2018,02,15,13,37,4.70
2018,02,15,13,38,4.70
2018,02,15,13,39,4.70
2018,02,15,13,40,4.70
2018,02,15,13,41,4.80
2018,02,15,13,42,4.80
2018,02,15,13,43,4.80
2018,02,15,13,44,4.80
2018,02,15,13,45,4.80
2018,02,15,13,46,4.80
2018,02,15,13,47,4.80
2018,02,15,13,48,4.80
2018,02,15,13,49,4.80
2018,02,15,13,50,4.80
2018,02,15,13,51,4.80
2018,02,15,13,52,4.80
2018,02,15,13,53,4.80
2018,02,15,13,54,4.80
2018,02,15,13,55,4.80
2018,02,15,13,56,4.80
2018,02,15,13,57,4.90
2018,02,15,13,58,4.90
2018,02,15,13,59,4.90
2018,02,15,14,00,4.90
2018,02,15,14,01,4.90
2018,02,15,14,02,4.90
2018,02,15,14,03,4.90
2018,02,15,14,04,4.90
2018,02,15,14,05,4.90
2018,02,15,14,06,4.90
2018,02,15,14,07,4.90
2018,02,15,14,08,4.80
2018,02,15,14,09,4.80
2018,02,15,14,10,4.80
2018,02,15,14,11,4.80
2018,02,15,14,12,4.90
2018,02,15,14,13,4.90
2018,02,15,14,14,4.80
2018,02,15,14,15,4.80
2018,02,15,14,16,4.80
2018,02,15,14,17,4.80
2018,02,15,14,18,4.80
2018,02,15,14,19,4.80
2018,02,15,14,20,4.80
2018,02,15,14,21,4.80
2018,02,15,14,22,4.80
2018,02,15,14,23,4.80
2018,02,15,14,24,4.80
2018,02,15,14,25,4.80
2018,02,15,14,26,4.80
2018,02,15,14,27,4.80
2018,02,15,14,28,4.80
2018,02,15,14,29,4.90
2018,02,15,14,30,4.90
2018,02,15,14,31,4.90
2018,02,15,14,32,4.90
2018,02,15,14,33,4.90
2018,02,15,14,34,4.90
2018,02,15,14,35,4.90
2018,02,15,14,36,4.90
2018,02,15,14,37,4.90
2018,02,15,14,38,4.90
2018,02,15,14,39,4.80
2018,02,15,14,40,4.80
2018,02,15,14,41,4.80
2018,02,15,14,42,4.80
2018,02,15,14,43,4.80
2018,02,15,14,44,4.80
2018,02,15,14,45,4.80
2018,02,15,14,46,4.80
2018,02,15,14,47,4.80
2018,02,15,14,48,4.80
2018,02,15,14,49,4.80
2018,02,15,14,50,4.80
2018,02,15,14,51,4.80
2018,02,15,14,52,4.80
2018,02,15,14,53,4.80
2018,02,15,14,54,4.80
2018,02,15,14,55,4.80
2018,02,15,14,56,4.80
2018,02,15,14,57,4.80
2018,02,15,14,58,4.80
2018,02,15,14,59,4.80
2018,02,15,15,00,4.80
2018,02,15,15,01,4.80
2018,02,15,15,02,4.80
2018,02,15,15,03,4.80
2018,02,15,15,04,4.80
2018,02,15,15,05,4.80
2018,02,15,15,06,4.80
2018,02,15,15,07,4.80
2018,02,15,15,08,4.80
2018,02,15,15,09,4.80
2018,02,15,15,10,4.80
2018,02,15,15,11,4.80
2018,02,15,15,12,4.80
2018,02,15,15,13,4.80
2018,02,15,15,14,4.80
2018,02,15,15,15,4.80
2018,02,15,15,16,4.80
2018,02,15,15,17,4.80
2018,02,15,15,18,4.80
2018,02,15,15,19,4.80
2018,02,15,15,20,4.80
2018,02,15,15,21,4.80
2018,02,15,15,22,4.80
2018,02,15,15,23,4.80
2018,02,15,15,24,4.80
2018,02,15,15,25,4.80
2018,02,15,15,26,4.80
2018,02,15,15,27,4.80
2018,02,15,15,28,4.80
2018,02,15,15,29,4.80
2018,02,15,15,30,4.80
2018,02,15,15,31,4.80
2018,02,15,15,32,4.80
2018,02,15,15,33,4.80
2018,02,15,15,34,4.80
2018,02,15,15,35,4.80
2018,02,15,15,36,4.80
2018,02,15,15,37,4.80
2018,02,15,15,38,4.80
2018,02,15,15,39,4.80
2018,02,15,15,40,4.80
2018,02,15,15,41,4.80
2018,02,15,15,42,4.80
2018,02,15,15,43,4.80
2018,02,15,15,44,4.80
2018,02,15,15,45,4.80
2018,02,15,15,46,4.80
2018,02,15,15,47,4.80
2018,02,15,15,48,4.80
2018,02,15,15,49,4.90
2018,02,15,15,50,4.90
2018,02,15,15,51,4.90
2018,02,15,15,52,4.90
2018,02,15,15,53,4.90
2018,02,15,15,54,4.90
2018,02,15,15,55,4.90
2018,02,15,15,56,4.90
2018,02,15,15,57,4.90
2018,02,15,15,58,4.90
2018,02,15,15,59,4.90
2018,02,15,16,00,4.90
2018,02,15,16,01,4.90
2018,02,15,16,02,4.90
2018,02,15,16,03,4.90
2018,02,15,16,04,4.90
2018,02,15,16,05,4.90
2018,02,15,16,06,5.00
2018,02,15,16,07,5.00
2018,02,15,16,08,5.00
2018,02,15,16,09,4.90
2018,02,15,16,10,4.90
2018,02,15,16,11,4.90
2018,02,15,16,12,4.90
2018,02,15,16,13,4.90
2018,02,15,16,14,4.90
2018,02,15,16,15,4.90
2018,02,15,16,16,4.90
2018,02,15,16,17,4.90
2018,02,15,16,18,4.90
2018,02,15,16,19,4.90
2018,02,15,16,20,4.90
2018,02,15,16,21,4.90
2018,02,15,16,22,4.90
2018,02,15,16,23,4.90
2018,02,15,16,24,4.90
2018,02,15,16,25,4.90
2018,02,15,16,26,4.90
2018,02,15,16,27,4.90
2018,02,15,16,28,4.90
2018,02,15,16,29,4.90
2018,02,15,16,30,4.90
2018,02,15,16,31,4.90
2018,02,15,16,32,4.90
2018,02,15,16,33,4.90
2018,02,15,16,34,4.90
2018,02,15,16,35,4.90
2018,02,15,16,36,4.90
2018,02,15,16,37,4.90
2018,02,15,16,38,4.90
2018,02,15,16,39,4.90
2018,02,15,16,40,4.90
2018,02,15,16,41,4.90
2018,02,15,16,42,4.90
2018,02,15,16,43,4.90
2018,02,15,16,44,4.90
2018,02,15,16,45,4.90
2018,02,15,16,46,4.90
2018,02,15,16,47,4.90
2018,02,15,16,48,4.90
2018,02,15,16,49,4.90
2018,02,15,16,50,4.90
2018,02,15,16,51,4.90
2018,02,15,16,52,4.90
2018,02,15,16,53,4.90
2018,02,15,16,54,4.90
2018,02,15,16,55,4.90
2018,02,15,16,56,4.90
2018,02,15,16,57,4.90
2018,02,15,16,58,4.90
2018,02,15,16,59,4.90
2018,02,15,17,00,4.90
2018,02,15,17,01,4.90
2018,02,15,17,02,4.90
2018,02,15,17,03,4.90
2018,02,15,17,04,4.90
2018,02,15,17,05,5.00
2018,02,15,17,06,5.00
2018,02,15,17,07,5.00
2018,02,15,17,08,5.00
2018,02,15,17,09,5.00
2018,02,15,17,10,5.00
2018,02,15,17,11,5.00
2018,02,15,17,12,5.00
2018,02,15,17,13,5.00
2018,02,15,17,14,5.00
2018,02,15,17,15,5.00
2018,02,15,17,16,5.00
2018,02,15,17,17,5.00
2018,02,15,17,18,5.00
2018,02,15,17,19,5.00
2018,02,15,17,20,5.00
2018,02,15,17,21,5.00
2018,02,15,17,22,5.10
2018,02,15,17,23,5.10
2018,02,15,17,24,5.10
2018,02,15,17,25,5.10
2018,02,15,17,26,5.10
2018,02,15,17,27,5.10
2018,02,15,17,28,5.00
2018,02,15,17,29,5.10
2018,02,15,17,30,5.10
2018,02,15,17,31,5.10
2018,02,15,17,32,5.10
2018,02,15,17,33,5.10
2018,02,15,17,34,5.10
2018,02,15,17,35,5.10
2018,02,15,17,36,5.10
2018,02,15,17,37,5.10
2018,02,15,17,38,5.10
2018,02,15,17,39,5.10
2018,02,15,17,40,5.10
2018,02,15,17,41,5.10
2018,02,15,17,42,5.00
2018,02,15,17,43,5.00
2018,02,15,17,44,5.00
2018,02,15,17,45,5.00
2018,02,15,17,46,5.00
2018,02,15,17,47,5.00
2018,02,15,17,48,5.00
2018,02,15,17,49,5.00
2018,02,15,17,50,5.00
2018,02,15,17,51,5.00
2018,02,15,17,52,5.00
2018,02,15,17,53,5.00
2018,02,15,17,54,5.00
2018,02,15,17,55,5.00
2018,02,15,17,56,5.00
2018,02,15,17,57,5.00
2018,02,15,17,58,5.00
2018,02,15,17,59,5.00
2018,02,15,18,00,5.00
2018,02,15,18,01,5.00
2018,02,15,18,02,5.00
2018,02,15,18,03,5.00
2018,02,15,18,04,5.00
2018,02,15,18,05,5.00
2018,02,15,18,06,5.00
2018,02,15,18,07,4.90
2018,02,15,18,08,4.90
2018,02,15,18,09,4.90
2018,02,15,18,10,4.90
2018,02,15,18,11,4.90
2018,02,15,18,12,4.90
2018,02,15,18,13,4.90
2018,02,15,18,14,4.90
2018,02,15,18,15,4.90
2018,02,15,18,16,4.90
2018,02,15,18,17,4.80
2018,02,15,18,18,4.80
2018,02,15,18,19,4.80
2018,02,15,18,20,4.80
2018,02,15,18,21,4.80
2018,02,15,18,22,4.80
2018,02,15,18,23,4.80
2018,02,15,18,24,4.80
2018,02,15,18,25,4.80
2018,02,15,18,26,4.80
2018,02,15,18,27,4.80
2018,02,15,18,28,4.80
2018,02,15,18,29,4.80
2018,02,15,18,30,4.80
2018,02,15,18,31,4.80
2018,02,15,18,32,4.80
2018,02,15,18,33,4.70
2018,02,15,18,34,4.70
2018,02,15,18,35,4.70
2018,02,15,18,36,4.70
2018,02,15,18,37,4.70
2018,02,15,18,38,4.70
2018,02,15,18,39,4.70
2018,02,15,18,40,4.70
2018,02,15,18,41,4.70
2018,02,15,18,42,4.60
2018,02,15,18,43,4.60
2018,02,15,18,44,4.60
2018,02,15,18,45,4.60
2018,02,15,18,46,4.60
2018,02,15,18,47,4.60
2018,02,15,18,48,4.60
2018,02,15,18,49,4.60
2018,02,15,18,50,4.60
2018,02,15,18,51,4.60
2018,02,15,18,52,4.50
2018,02,15,18,53,4.50
2018,02,15,18,54,4.50
2018,02,15,18,55,4.50
2018,02,15,18,56,4.50
2018,02,15,18,57,4.50
2018,02,15,18,58,4.50
2018,02,15,18,59,4.40
2018,02,15,19,00,4.40
2018,02,15,19,01,4.40
2018,02,15,19,02,4.40
2018,02,15,19,03,4.40
2018,02,15,19,04,4.40
2018,02,15,19,05,4.40
2018,02,15,19,06,4.40
2018,02,15,19,07,4.40
2018,02,15,19,08,4.40
2018,02,15,19,09,4.40
2018,02,15,19,10,4.40
2018,02,15,19,11,4.40
2018,02,15,19,12,4.40
2018,02,15,19,13,4.40
2018,02,15,19,14,4.40
2018,02,15,19,15,4.40
2018,02,15,19,16,4.40
2018,02,15,19,17,4.40
2018,02,15,19,18,4.40
2018,02,15,19,19,4.40
2018,02,15,19,20,4.40
2018,02,15,19,21,4.40
2018,02,15,19,22,4.40
2018,02,15,19,23,4.40
2018,02,15,19,24,4.40
2018,02,15,19,25,4.30
2018,02,15,19,26,4.30
2018,02,15,19,27,4.30
2018,02,15,19,28,4.30
2018,02,15,19,29,4.30
2018,02,15,19,30,4.30
2018,02,15,19,31,4.30
2018,02,15,19,32,4.30
2018,02,15,19,33,4.30
2018,02,15,19,34,4.30
2018,02,15,19,35,4.30
2018,02,15,19,36,4.30
2018,02,15,19,37,4.30
2018,02,15,19,38,4.30
2018,02,15,19,39,4.30
2018,02,15,19,40,4.30
2018,02,15,19,41,4.30
2018,02,15,19,42,4.30
2018,02,15,19,43,4.30
2018,02,15,19,44,4.30
2018,02,15,19,45,4.30
2018,02,15,19,46,4.30
2018,02,15,19,47,4.30
2018,02,15,19,48,4.30
2018,02,15,19,49,4.30
2018,02,15,19,50,4.30
2018,02,15,19,51,4.30
2018,02,15,19,52,4.30
2018,02,15,19,53,4.30
2018,02,15,19,54,4.30
2018,02,15,19,55,4.30
2018,02,15,19,56,4.30
2018,02,15,19,57,4.30
2018,02,15,19,58,4.20
2018,02,15,19,59,4.20
2018,02,15,20,00,4.20
2018,02,15,20,01,4.20
2018,02,15,20,02,4.20
2018,02,15,20,03,4.20
2018,02,15,20,04,4.20
2018,02,15,20,05,4.20
2018,02,15,20,06,4.20
2018,02,15,20,07,4.20
2018,02,15,20,08,4.20
2018,02,15,20,09,4.20
2018,02,15,20,10,4.20
2018,02,15,20,11,4.20
2018,02,15,20,12,4.20
2018,02,15,20,13,4.20
2018,02,15,20,14,4.20
2018,02,15,20,15,4.20
2018,02,15,20,16,4.20
2018,02,15,20,17,4.20
2018,02,15,20,18,4.20
2018,02,15,20,19,4.20
2018,02,15,20,20,4.20
2018,02,15,20,21,4.10
2018,02,15,20,22,4.10
2018,02,15,20,23,4.10
2018,02,15,20,24,4.10
2018,02,15,20,25,4.10
2018,02,15,20,26,4.10
2018,02,15,20,27,4.10
2018,02,15,20,28,4.10
2018,02,15,20,29,4.10
2018,02,15,20,30,4.10
2018,02,15,20,31,4.10
2018,02,15,20,32,4.10
2018,02,15,20,33,4.10
2018,02,15,20,34,4.10
2018,02,15,20,35,4.10
2018,02,15,20,36,4.10
2018,02,15,20,37,4.10
2018,02,15,20,38,4.10
2018,02,15,20,39,4.10
2018,02,15,20,40,4.10
2018,02,15,20,41,4.10
2018,02,15,20,42,4.10
2018,02,15,20,43,4.10
2018,02,15,20,44,4.10
2018,02,15,20,45,4.10
2018,02,15,20,46,4.10
2018,02,15,20,47,4.10
2018,02,15,20,48,4.10
2018,02,15,20,49,4.00
2018,02,15,20,50,4.00
2018,02,15,20,51,4.00
2018,02,15,20,52,4.00
2018,02,15,20,53,4.00
2018,02,15,20,54,4.00
2018,02,15,20,55,4.00
2018,02,15,20,56,4.00
2018,02,15,20,57,4.00
2018,02,15,20,58,4.00
2018,02,15,20,59,4.00
2018,02,15,21,00,4.00
2018,02,15,21,01,4.00
2018,02,15,21,02,4.00
2018,02,15,21,03,4.00
2018,02,15,21,04,4.00
2018,02,15,21,05,4.00
2018,02,15,21,06,4.00
2018,02,15,21,07,4.00
2018,02,15,21,08,4.00
2018,02,15,21,09,4.00
2018,02,15,21,10,4.00
2018,02,15,21,11,4.00
2018,02,15,21,12,4.00
2018,02,15,21,13,4.00
2018,02,15,21,14,3.90
2018,02,15,21,15,3.90
2018,02,15,21,16,3.90
2018,02,15,21,17,3.90
2018,02,15,21,18,3.90
2018,02,15,21,19,3.90
2018,02,15,21,20,3.90
2018,02,15,21,21,3.90
2018,02,15,21,22,3.90
2018,02,15,21,23,3.90
2018,02,15,21,24,3.90
2018,02,15,21,25,3.90
2018,02,15,21,26,3.90
2018,02,15,21,27,3.90
2018,02,15,21,28,3.90
2018,02,15,21,29,3.90
2018,02,15,21,30,3.90
2018,02,15,21,31,3.90
2018,02,15,21,32,3.90
2018,02,15,21,33,3.90
2018,02,15,21,34,3.90
2018,02,15,21,35,3.90
2018,02,15,21,36,3.90
2018,02,15,21,37,3.90
2018,02,15,21,38,3.90
2018,02,15,21,39,3.90
2018,02,15,21,40,3.90
2018,02,15,21,41,3.90
2018,02,15,21,42,3.90
2018,02,15,21,43,3.90
2018,02,15,21,44,3.90
2018,02,15,21,45,3.90
2018,02,15,21,46,3.90
2018,02,15,21,47,3.90
2018,02,15,21,48,3.90
2018,02,15,21,49,3.90
2018,02,15,21,50,3.90
2018,02,15,21,51,3.90
2018,02,15,21,52,3.90
2018,02,15,21,53,3.90
2018,02,15,21,54,3.90
2018,02,15,21,55,3.90
2018,02,15,21,56,3.90
2018,02,15,21,57,3.90
2018,02,15,21,58,3.90
2018,02,15,21,59,3.90
2018,02,15,22,00,3.90
2018,02,15,22,01,3.90
2018,02,15,22,02,3.90
2018,02,15,22,03,3.90
2018,02,15,22,04,3.90
2018,02,15,22,05,3.90
2018,02,15,22,06,3.90
2018,02,15,22,07,3.90
2018,02,15,22,08,4.00
2018,02,15,22,09,4.00
2018,02,15,22,10,4.00
2018,02,15,22,11,4.10
2018,02,15,22,12,4.10
2018,02,15,22,13,4.10
2018,02,15,22,14,4.10
2018,02,15,22,15,4.10
2018,02,15,22,16,4.10
2018,02,15,22,17,4.10
2018,02,15,22,18,4.10
2018,02,15,22,19,4.10
2018,02,15,22,20,4.10
2018,02,15,22,21,4.10
2018,02,15,22,22,4.10
2018,02,15,22,23,4.10
2018,02,15,22,24,4.10
2018,02,15,22,25,4.10
2018,02,15,22,26,4.10
2018,02,15,22,27,4.10
2018,02,15,22,28,4.10
2018,02,15,22,29,4.10
2018,02,15,22,30,4.10
2018,02,15,22,31,4.10
2018,02,15,22,32,4.10
2018,02,15,22,33,4.10
2018,02,15,22,34,4.10
2018,02,15,22,35,4.10
2018,02,15,22,36,4.10
2018,02,15,22,37,4.10
2018,02,15,22,38,4.10
2018,02,15,22,39,4.10
2018,02,15,22,40,4.10
2018,02,15,22,41,4.20
2018,02,15,22,42,4.20
2018,02,15,22,43,4.20
2018,02,15,22,44,4.20
2018,02,15,22,45,4.20
2018,02,15,22,46,4.30
2018,02,15,22,47,4.30
2018,02,15,22,48,4.30
2018,02,15,22,49,4.30
2018,02,15,22,50,4.30
2018,02,15,22,51,4.30
2018,02,15,22,52,4.30
2018,02,15,22,53,4.40
2018,02,15,22,54,4.50
2018,02,15,22,55,4.50
2018,02,15,22,56,4.50
2018,02,15,22,57,4.60
2018,02,15,22,58,4.60
2018,02,15,22,59,4.50
2018,02,15,23,00,4.50
2018,02,15,23,01,4.50
2018,02,15,23,02,4.60
2018,02,15,23,03,4.60
2018,02,15,23,04,4.60
2018,02,15,23,05,4.60
2018,02,15,23,06,4.60
2018,02,15,23,07,4.70
2018,02,15,23,08,4.70
2018,02,15,23,09,4.70
2018,02,15,23,10,4.70
2018,02,15,23,11,4.70
2018,02,15,23,12,4.70
2018,02,15,23,13,4.70
2018,02,15,23,14,4.70
2018,02,15,23,15,4.70
2018,02,15,23,16,4.70
2018,02,15,23,17,4.70
2018,02,15,23,18,4.70
2018,02,15,23,19,4.70
2018,02,15,23,20,4.70
2018,02,15,23,21,4.70
2018,02,15,23,22,4.70
2018,02,15,23,23,4.70
2018,02,15,23,24,4.60
2018,02,15,23,25,4.60
2018,02,15,23,26,4.60
2018,02,15,23,27,4.60
2018,02,15,23,28,4.60
2018,02,15,23,29,4.60
2018,02,15,23,30,4.60
2018,02,15,23,31,4.60
2018,02,15,23,32,4.50
2018,02,15,23,33,4.50
2018,02,15,23,34,4.50
2018,02,15,23,35,4.50
2018,02,15,23,36,4.50
2018,02,15,23,37,4.50
2018,02,15,23,38,4.40
2018,02,15,23,39,4.40
2018,02,15,23,40,4.40
2018,02,15,23,41,4.40
2018,02,15,23,42,4.40
2018,02,15,23,43,4.30
2018,02,15,23,44,4.30
2018,02,15,23,45,4.30
2018,02,15,23,46,4.30
2018,02,15,23,47,4.30
2018,02,15,23,48,4.30
2018,02,15,23,49,4.30
2018,02,15,23,50,4.30
2018,02,15,23,51,4.30
2018,02,15,23,52,4.30
2018,02,15,23,53,4.40
2018,02,15,23,54,4.40
2018,02,15,23,55,4.40
2018,02,15,23,56,4.40
2018,02,15,23,57,4.40
2018,02,15,23,58,4.40
2018,02,15,23,59,4.40
